Location: Vibo Valentia
(38.6670°N, 16.1000°E)
Time: 10:52:01
(UTC+02:00)

STARLINK-1353 - Pass Details

Date: 07 October 2020
Orbit: 530 x 533 km, 53.0° (Epoch: 22 October)

Event Time Altitude Azimuth Distance (km) Brightness Sun altitude
Exits shadow 04:44:51 11° 358° (N) 1,742 6.3 -26.5°
Drops below altitude 10° 04:45:39 10° 9° (N) 1,785 6.5 -26.3°
Sets 04:49:41 0° 49° (NE) 2,677 8.1 -25.6°
